RH
7 6 8 10 16 27 32 28 25 20 13 10 10 15 27 27 34 35 48 93 83 29 59 72 98 90 87 68 72 82 69 68 66 95 37 36 42 36 31 35 34 31 30 25 22
7 7 7 8 12 22 26 27 26 18 14 12 16 27 36 42 39 36 100 96 93 61 40 72 99 96 93 87 72 58 48 65 74 98 68 62 38 38 31 28 30 29 23 19 19
7 6 7 10 15 22 24 26 25 18 14 13 21 38 46 49 45 67 92 90 98 96 28 49 97 94 92 93 84 62 42 74 100 97 94 93 51 40 33 29 23 19 18 19 17
7 6 7 10 14 19 22 28 26 17 15 17 26 34 50 50 28 33 60 94 100 100 96 27 86 95 87 85 80 58 55 76 100 97 98 90 67 42 30 31 30 26 26 21 20
7 6 9 14 18 17 23 28 23 16 17 21 30 36 38 42 38 23 27 53 84 98 100 67 35 99 93 78 85 71 64 84 99 96 95 94 72 65 44 31 32 37 34 27 24
7 7 12 14 19 16 27 26 19 17 17 23 27 30 30 25 32 30 22 18 56 84 100 98 81 61 100 94 73 79 77 89 96 98 95 96 90 68 61 48 37 40 40 37 29
7 9 14 16 18 22 27 21 17 17 19 29 32 35 32 29 29 32 30 23 17 65 72 100 100 67 92 99 85 69 81 93 96 97 98 96 94 73 62 54 46 41 40 40 34
7 10 14 17 18 26 24 19 18 16 28 30 28 28 27 27 27 30 31 33 28 20 56 46 90 100 79 95 99 96 91 86 82 93 88 98 80 79 66 61 54 62 50 46 43
7 10 15 16 22 23 21 19 17 23 25 19 16 15 14 14 16 22 25 26 34 33 25 29 68 96 98 93 100 96 90 75 73 89 92 94 93 88 75 60 53 60 59 55 50
7 12 15 13 23 22 20 19 25 24 17 12 11 9 9 10 10 10 16 23 18 26 30 20 28 80 88 96 94 96 84 67 69 73 76 83 85 99 85 66 60 66 60 56 51
8 13 12 17 22 19 19 29 26 17 11 11 8 6 4 4 4 8 9 13 17 19 21 26 19 32 48 60 71 82 97 84 63 64 79 71 74 98 98 88 76 89 70 62 55
10 12 10 20 20 20 27 32 22 17 9 8 7 6 6 5 5 14 8 9 10 15 16 20 24 34 34 80 90 99 96 99 92 74 69 80 72 92 94 91 97 89 83 68 63
11 10 14 20 19 25 35 24 18 13 8 10 14 22 42 38 32 24 8 14 11 10 10 17 25 27 33 81 99 97 99 93 95 96 72 65 86 88 92 74 76 94 95 77 66
10 10 13 16 22 35 31 20 15 10 11 15 37 89 95 89 63 52 29 24 29 16 9 13 20 29 26 60 96 100 98 100 100 99 90 62 54 81 93 90 66 67 89 89 74
10 13 15 18 27 42 24 17 11 8 15 36 59 100 89 94 88 83 80 81 95 58 18 10 16 37 36 29 75 96 99 100 99 100 97 82 62 50 73 89 70 57 58 71 85
10 12 16 20 45 34 22 15 9 14 29 33 63 82 100 97 78 84 76 68 100 100 52 14 15 78 35 40 80 93 100 100 100 99 100 85 78 50 45 55 70 68 67 64 63
10 12 19 36 50 27 20 12 9 15 30 50 82 99 97 91 89 72 100 100 100 100 86 27 19 59 95 78 100 100 100 97 100 100 94 80 87 54 46 43 52 61 59 54 61
9 15 22 55 41 26 18 9 11 18 48 90 89 100 100 95 100 66 100 100 100 100 100 78 26 35 99 84 99 100 100 98 96 97 86 81 74 50 57 47 40 46 52 51 48
11 19 38 58 34 24 15 9 13 23 48 76 87 100 100 87 97 68 94 100 93 100 100 100 79 29 95 68 90 100 100 100 98 92 86 78 48 44 54 56 43 38 40 43 43
12 31 56 54 31 20 13 15 19 26 52 59 87 95 99 89 84 100 72 84 99 100 100 100 90 65 26 72 81 100 100 100 100 100 99 80 63 55 60 65 59 42 36 35 35
18 38 59 48 30 20 12 18 29 30 46 54 86 94 95 97 94 100 100 90 98 100 100 100 100 100 94 36 23 69 98 100 100 97 88 68 59 62 56 60 62 61 41 33 31
20 47 64 48 25 20 10 21 36 49 76 62 85 87 88 100 98 99 100 100 100 96 100 97 94 72 89 61 43 62 100 100 100 83 85 74 67 62 53 48 53 69 55 38 33
43 54 68 44 24 15 11 20 49 41 68 83 90 76 76 99 98 100 93 100 100 93 100 100 100 90 100 99 85 80 92 87 71 83 76 69 60 63 67 52 48 53 70 50 37
57 58 69 39 26 16 13 24 62 66 49 64 85 70 73 93 94 100 100 99 100 100 100 100 100 100 92 80 90 78 80 83 77 59 55 69 68 76 65 66 64 49 56 60 42
63 70 68 35 26 16 12 22 36 62 63 50 57 68 71 88 89 97 100 91 100 100 94 98 100 99 100 96 95 100 100 100 100 76 62 89 100 100 88 77 69 71 62 56 41
60 76 63 29 25 15 13 29 36 51 49 58 66 61 58 86 85 87 100 94 81 95 100 100 97 100 100 92 92 96 95 93 100 100 82 71 88 100 99 77 75 73 66 62 48
58 78 56 26 24 15 15 22 40 55 63 54 80 79 58 59 86 75 100 96 99 98 96 96 98 83 81 98 94 92 94 100 100 89 81 80 79 97 97 99 73 69 63 60 56
Wind_Speed
64 66 67 65 59 49 40 35 36 35 40 40 40 39 39 39 38 39 39 45 46 46 48 49 47 47 49 51 55 53 56 46 41 59 41 45 54 58 56 54 51 48 45 42 42
65 67 69 66 58 44 37 36 37 39 43 42 38 37 36 36 35 36 37 46 47 48 48 47 48 49 50 50 51 51 50 40 44 57 41 45 54 58 56 54 51 48 44 43 43
66 68 69 63 52 40 34 37 40 45 48 42 39 36 37 35 32 29 39 43 48 50 48 49 55 49 52 51 52 50 47 44 46 53 51 46 53 59 57 53 49 46 43 42 43
69 69 69 62 53 39 35 40 43 50 48 41 39 38 38 36 32 32 34 38 46 52 53 51 56 55 50 53 53 52 47 44 46 50 56 50 57 58 55 51 49 44 42 44 46
71 71 67 57 47 39 38 44 50 54 48 43 41 42 38 37 30 36 34 35 40 50 54 54 51 58 54 48 52 53 47 44 47 51 47 56 53 59 54 52 50 45 43 44 43
74 71 62 53 48 38 44 48 56 54 50 42 42 45 42 36 36 43 40 37 41 42 46 53 57 54 56 53 51 51 51 48 47 50 46 48 57 56 55 50 45 43 41 42 41
76 71 61 48 46 43 48 56 59 55 46 40 41 46 39 35 41 46 49 45 42 42 42 45 50 58 60 56 52 50 52 52 51 50 48 54 53 59 55 52 44 43 43 43 42
75 69 56 52 44 49 53 61 61 50 42 40 42 47 39 41 46 46 51 49 49 46 46 45 49 60 60 58 58 55 56 57 54 50 52 49 53 50 51 51 47 42 44 42 41
77 68 53 49 48 53 61 63 52 44 44 45 46 48 40 44 48 51 55 51 52 50 47 49 49 48 59 56 53 62 57 55 55 50 50 50 49 52 49 49 49 43 43 42 41
76 63 54 47 53 60 65 55 44 47 51 48 44 44 42 42 43 49 56 57 58 55 54 55 55 51 54 60 57 56 56 57 53 51 51 48 46 55 53 47 46 44 42 41 39
72 58 54 50 60 65 61 47 45 47 54 49 48 44 43 43 43 46 55 61 64 63 59 57 61 58 45 44 38 46 48 54 53 50 53 48 46 46 55 59 52 46 44 43 42
65 56 54 55 64 67 53 50 52 49 50 50 44 41 38 39 38 37 51 59 67 67 63 66 64 42 45 49 49 45 52 49 54 50 53 52 50 47 47 49 54 52 46 42 42
61 55 52 60 66 57 51 54 55 52 49 42 36 30 26 24 20 28 45 51 63 69 69 68 52 56 53 51 52 51 45 54 46 55 55 54 56 52 48 48 49 49 53 48 49
58 56 54 62 63 53 55 56 55 51 43 33 23 15 18 18 12 17 32 41 52 62 66 68 63 59 55 54 49 53 46 51 48 51 60 56 58 55 51 50 49 47 47 54 55
58 58 58 63 54 52 55 56 53 50 36 24 17 15 14 12 11 15 16 34 31 44 63 69 67 60 59 49 52 45 47 47 49 44 52 60 57 55 54 53 49 46 44 44 45
57 57 60 60 50 53 55 54 50 39 22 19 15 9 9 11 13 16 15 20 35 24 48 65 67 63 59 52 52 53 48 48 48 50 51 54 60 59 54 50 51 48 44 43 44
56 56 58 50 51 53 54 52 43 33 25 10 7 6 9 7 11 9 10 15 29 32 28 55 66 64 48 54 46 48 51 51 48 55 51 47 56 60 53 50 51 51 46 43 42
57 56 55 49 51 52 53 48 37 29 14 10 4 3 5 4 10 7 15 17 22 30 12 37 65 69 50 58 48 52 51 58 62 54 50 48 50 55 54 52 50 50 49 48 46
55 53 48 50 50 52 50 44 34 25 14 5 7 2 1 5 11 9 19 13 30 28 23 28 37 58 65 56 58 54 55 51 52 55 54 56 48 48 51 54 50 48 49 48 47
52 48 48 48 49 49 44 37 30 23 12 8 5 3 4 8 5 8 10 19 26 28 17 20 37 42 62 68 62 53 38 42 54 50 49 51 44 41 40 52 51 47 47 46 46
49 45 46 46 47 46 36 30 24 26 13 6 3 2 3 1 6 5 6 11 26 26 21 17 16 40 43 60 68 66 53 39 38 38 39 43 45 44 37 39 47 50 45 46 45
46 42 44 44 44 44 36 26 17 21 17 2 3 3 2 1 4 6 4 8 16 23 24 14 19 32 34 49 58 56 44 51 51 46 42 41 39 41 41 43 42 49 47 42 44
44 42 43 43 43 40 34 25 18 13 12 6 2 1 6 2 1 4 2 1 6 15 30 13 21 36 36 42 46 55 39 42 51 48 44 47 48 42 37 35 41 44 46 44 41
42 41 42 41 42 39 29 20 14 15 12 8 6 4 7 6 3 4 4 5 10 11 22 21 22 30 30 33 37 44 48 41 45 50 47 39 36 35 36 37 33 36 46 45 43
39 40 42 42 41 39 31 21 14 12 12 11 10 10 8 8 8 5 6 5 8 13 13 22 24 31 29 27 33 42 39 41 43 45 51 47 41 33 33 30 35 38 34 45 44
38 38 41 41 41 37 32 23 15 14 14 12 11 11 12 11 12 8 8 4 6 8 13 14 18 24 23 26 25 37 38 41 41 42 48 50 45 37 29 31 29 27 37 42 43
37 38 39 40 40 37 31 25 16 11 14 11 10 8 14 12 14 11 9 9 6 8 10 14 16 22 23 23 31 35 45 31 42 46 46 45 44 40 42 33 34 35 35 38 40
Wind_Direction
322 318 317 317 318 319 317 314 316 308 292 283 276 269 264 258 253 247 240 236 233 233 231 228 228 229 229 232 234 237 236 236 236 222 213 214 219 223 223 222 223 227 229 229 231
323 317 316 319 320 319 313 312 312 305 292 287 278 269 264 258 254 246 240 235 233 230 228 228 224 228 228 231 234 236 233 230 233 221 210 211 216 220 221 222 222 222 225 228 229
324 319 316 319 320 317 308 310 308 301 297 291 280 268 261 258 253 247 241 236 230 231 226 226 227 224 228 225 230 234 230 232 234 226 203 212 214 219 219 220 220 221 222 225 228
326 322 319 322 320 317 307 312 303 298 297 291 282 270 261 257 255 248 244 238 233 231 223 226 229 223 224 229 229 232 228 229 227 222 215 207 211 216 217 217 218 218 220 221 225
326 322 323 324 320 312 307 309 300 299 297 290 276 269 263 257 251 256 244 241 241 235 228 221 228 230 221 226 231 232 227 228 225 222 221 209 215 217 215 213 216 215 216 221 223
325 323 325 323 320 309 314 306 300 301 300 290 280 270 263 258 255 254 248 238 236 239 231 227 219 227 224 220 226 229 231 227 224 223 220 215 216 218 218 217 213 213 213 219 221
325 325 327 319 316 312 312 303 305 306 299 287 276 272 267 262 257 249 246 240 235 234 234 231 229 220 226 220 218 225 227 230 227 222 227 218 214 219 217 216 213 215 213 215 216
325 325 325 319 313 315 308 307 309 306 299 292 283 276 268 260 252 251 247 240 236 230 229 231 231 224 221 225 219 222 222 226 228 227 218 223 215 216 215 216 217 216 214 215 215
325 326 321 318 316 313 309 311 312 307 305 297 289 282 274 259 251 241 243 240 238 233 227 226 225 226 224 222 221 218 220 221 224 228 226 223 213 217 211 206 212 215 215 215 213
326 325 320 315 318 312 315 316 314 314 308 304 297 290 279 265 253 242 237 235 233 232 225 223 224 223 223 222 220 221 221 218 222 227 227 223 213 216 214 207 207 212 213 218 217
325 322 320 319 316 317 320 320 319 316 309 307 302 295 282 269 257 244 234 229 229 228 225 222 222 223 226 229 221 222 223 223 221 221 229 226 220 216 220 217 211 212 212 214 215
325 322 321 321 318 322 323 325 325 321 313 311 305 298 285 270 255 247 234 226 225 224 222 217 221 223 220 222 219 218 219 221 217 219 224 226 223 222 227 219 217 214 213 211 217
324 323 323 320 323 325 327 328 325 322 317 313 307 298 293 284 269 239 235 225 221 220 217 217 219 214 214 215 215 216 209 220 218 218 221 221 224 224 222 226 221 216 213 211 212
324 324 323 321 326 327 330 328 326 321 321 317 296 286 286 291 264 242 244 229 221 216 212 213 212 213 212 213 214 215 215 221 222 223 219 221 224 223 221 226 227 220 216 219 219
324 324 323 325 328 330 331 330 328 323 325 314 289 283 293 281 277 275 272 233 221 212 208 209 207 211 211 212 214 216 217 219 227 228 226 221 224 219 220 222 226 226 221 218 219
324 327 324 329 329 332 333 332 329 328 328 306 297 282 274 279 306 307 280 236 209 187 210 207 203 204 209 209 211 214 214 214 223 225 228 226 225 218 219 218 226 228 230 227 224
326 328 328 329 331 334 335 334 334 332 325 312 259 293 283 276 320 303 173 213 192 184 207 206 203 200 205 201 204 215 214 217 220 224 224 230 228 224 218 219 222 226 227 230 228
327 327 331 332 334 335 337 337 338 336 333 321 252 302 302 306 346 294 178 175 217 190 168 208 203 198 189 193 197 207 217 215 213 208 218 222 227 224 218 220 220 222 224 224 226
329 329 330 333 336 338 339 337 343 344 334 303 290 283 4 322 337 327 231 185 205 207 184 202 203 205 197 199 197 196 212 213 217 220 217 225 229 232 219 219 220 222 225 225 224
329 330 330 335 337 339 339 337 339 346 325 309 256 244 165 13 348 46 244 241 208 195 180 157 202 202 208 207 202 200 204 214 219 219 215 219 226 229 221 219 219 222 224 225 226
329 329 330 335 337 340 336 336 339 343 339 297 260 248 214 65 122 58 107 245 235 202 182 173 173 207 207 210 210 213 212 208 207 210 217 227 230 232 225 221 218 220 224 223 224
329 329 331 335 337 339 335 334 341 351 352 307 266 247 219 173 120 251 117 93 228 229 182 160 197 208 205 206 210 213 213 218 221 218 219 222 228 232 235 226 220 217 221 222 224
329 328 332 334 338 337 335 327 328 342 341 325 278 247 238 206 113 195 170 146 160 231 216 215 173 205 203 209 208 210 205 213 218 219 224 226 232 232 237 235 226 215 217 221 223
329 328 331 334 337 337 332 324 312 330 335 304 270 266 235 245 220 163 197 185 154 176 230 214 170 197 201 210 213 208 207 209 211 215 214 217 221 227 229 231 227 220 216 218 220
330 330 332 333 337 337 331 322 293 288 313 318 290 254 234 235 234 196 177 222 191 178 206 211 189 196 201 208 209 211 211 208 208 210 212 214 217 232 232 229 228 226 217 215 218
331 332 330 331 335 335 329 318 312 292 273 304 289 264 233 228 225 225 213 193 219 210 193 195 204 182 181 200 204 209 202 208 213 212 214 216 219 219 213 223 222 228 221 212 216
331 330 330 330 333 333 326 316 299 285 292 275 285 268 220 225 222 222 212 212 196 209 207 209 195 209 199 188 201 208 211 200 208 215 215 218 216 218 220 219 228 228 224 216 210